Location: Rioux
(40.7500°S, 175.7500°E)
Time: 11:03:09
(UTC+00:00)

CZ-4B R/B - Pass Details

Date: 12 June 2024
Orbit: 481 x 603 km, 97.9° (Epoch: 21 July)

Event Time Altitude Azimuth Distance (km) Brightness Sun altitude
Rises 18:32:09 0° 2° (N) 2,701 7.7 -12.2°
Reaches altitude 10° 18:34:16 10° 357° (N) 1,838 6.7 -11.8°
Maximum altitude 18:38:10 53° 280° (W) 717 4.1 -11.1°
Drops below altitude 10° 18:42:17 10° 202° (SSW) 1,937 6.2 -10.4°
Enters shadow 18:44:10 - 198° (SSW) 2,707 7.0 -10.1°
